Location: La Fredeussais
(48.1780°N, 1.3980°W)
Time: 15:22:43
(UTC+00:00)

Cosmos 1743 - Pass Details

Date: 09 May 2021
Orbit: 510 x 525 km, 82.6° (Epoch: 24 June)

Event Time Altitude Azimuth Distance (km) Brightness Sun altitude
Rises 23:11:55 0° 344° (NNW) 2,651 7.8 -23.3°
Reaches altitude 10° 23:14:07 10° 337° (NNW) 1,761 6.5 -23.3°
Enters shadow 23:17:37 41° 274° (W) 762 3.6 -23.5°
